GFSWCAN_sfc_wetblb_132.txt.gz
Wetbulb
53.66 53.87 54.67 54.22 54.07 54.18 54.18 53.97 54.15 54.53 55.11 55.04 55.73 55.68 54.87 56.18 56.31 51.84 48.77 51.31 52.37 52.66 54.51 54.97 53.04 48.54 48.47 45.44 41.18 43.32 44.48 45.03 44.54 39.87 39.58 38.88 38.28 39.82 38.83 39.84 39.51 36.89 35.05 34.42 35.90 34.07 35.15 51.41 51.55 45.90 47.73 50.09 55.81 56.31
54.05 54.16 53.71 53.48 53.85 53.91 53.83 54.30 54.81 54.85 54.93 54.83 55.20 55.05 55.21 56.13 56.17 54.97 46.22 54.33 54.89 53.03 54.06 56.97 53.31 53.61 52.07 50.51 45.36 43.38 43.61 43.62 46.14 41.69 41.50 41.72 40.55 39.35 35.95 34.50 42.07 36.96 38.98 36.95 38.53 39.54 46.70 49.91 49.40 51.08 50.43 49.54 50.30 56.68
52.71 53.43 53.16 53.57 53.55 53.59 53.67 54.51 55.13 55.03 54.97 55.07 55.27 55.15 54.70 55.74 56.15 54.65 48.72 48.72 52.49 54.13 54.06 50.84 50.24 52.91 52.87 51.53 49.24 43.13 45.79 50.38 48.06 47.35 43.52 41.39 39.28 40.13 36.14 37.09 39.04 42.70 44.50 40.58 41.10 44.57 47.36 49.64 51.02 50.69 51.49 51.62 52.78 59.68
52.30 53.04 52.92 53.27 53.24 53.31 53.72 54.28 54.12 53.89 55.23 55.17 55.43 55.38 55.24 55.33 55.68 55.47 47.89 50.06 49.00 52.53 49.71 48.62 54.55 52.59 51.80 52.79 52.07 50.75 51.75 50.58 49.10 45.91 41.50 38.87 39.13 42.73 39.41 41.47 39.92 43.44 43.78 40.38 42.10 44.34 46.84 49.15 50.47 51.65 52.35 54.73 59.05 59.49
52.09 52.66 52.74 52.93 52.98 53.21 53.24 53.39 53.53 53.60 54.68 55.39 55.15 55.27 55.37 55.37 54.85 53.08 50.56 49.45 51.06 52.57 49.03 49.03 51.43 51.31 51.73 52.14 52.09 51.47 49.63 46.77 43.92 42.07 40.69 39.55 42.76 44.10 42.21 39.54 37.59 43.52 42.24 39.30 38.80 45.86 45.04 45.95 49.90 52.42 51.62 53.85 54.32 57.76
52.12 52.46 52.60 52.54 52.75 52.97 52.94 52.93 53.20 53.42 54.06 54.89 55.13 55.15 55.27 54.79 54.06 47.04 50.23 52.22 52.04 54.53 52.07 45.79 50.14 48.96 51.41 52.08 51.02 48.91 48.46 47.46 45.74 44.37 43.10 46.12 48.20 44.42 39.52 35.41 43.75 47.43 47.24 47.51 47.44 49.85 49.68 51.13 52.97 54.70 53.46 55.06 56.37 58.06
51.72 52.23 52.46 52.50 52.72 52.74 52.86 52.65 52.85 52.99 53.01 54.49 55.07 54.95 54.48 53.88 47.87 47.65 50.84 53.21 51.95 52.14 52.18 45.30 44.70 49.79 52.18 50.27 48.93 47.87 46.88 45.40 45.96 43.01 42.86 44.67 45.40 44.21 38.39 35.73 42.86 47.71 50.75 51.34 52.16 50.52 47.96 50.49 48.44 52.28 53.92 54.91 58.39 59.52
51.42 52.03 52.32 52.56 52.72 52.68 52.62 52.82 53.11 52.83 52.86 53.36 54.40 54.34 53.80 52.69 50.11 47.37 52.08 52.64 51.46 54.06 52.07 42.49 45.54 47.34 50.38 46.51 45.70 48.24 46.26 45.35 44.56 42.47 42.86 44.36 45.28 43.44 38.85 43.74 46.12 48.02 52.03 51.59 51.75 50.03 48.85 50.15 50.29 50.68 53.36 54.04 57.16 57.38
51.75 52.17 52.41 52.48 52.58 52.73 52.40 52.72 53.40 53.02 52.52 53.15 52.92 52.59 49.48 47.84 48.37 51.45 57.78 54.95 53.88 53.95 47.54 44.65 43.92 43.27 49.79 47.01 47.60 47.32 46.64 42.93 45.78 41.45 41.69 44.14 40.35 36.96 42.93 44.84 46.20 47.15 49.68 50.83 51.34 50.74 50.42 51.45 51.38 53.35 54.03 52.20 52.25 55.72
51.86 51.97 52.39 52.39 52.34 52.61 52.34 52.85 52.78 52.36 52.28 52.51 49.42 48.77 46.78 50.49 57.04 56.61 51.15 48.31 49.33 49.55 52.33 48.33 46.33 44.72 48.20 45.63 45.22 46.49 44.84 41.25 40.58 44.19 45.78 40.93 39.78 43.89 47.29 47.63 46.92 49.41 49.74 50.52 47.72 46.67 47.32 50.02 50.94 50.59 50.81 51.97 54.21 55.35
51.67 51.64 52.24 52.51 52.25 52.51 52.26 52.80 52.65 52.22 52.53 50.64 49.42 49.88 52.72 56.65 51.22 48.97 45.08 43.34 43.99 42.47 45.21 48.54 47.82 46.82 50.16 45.62 44.57 46.61 44.25 43.37 39.06 42.04 41.98 39.05 39.42 44.09 48.37 47.88 48.38 48.74 49.83 49.83 50.44 50.28 49.99 50.21 49.65 50.33 50.78 53.46 53.76 53.85
51.24 51.78 52.02 52.51 52.26 52.14 52.35 52.53 52.25 50.38 49.76 49.27 48.90 51.08 52.84 51.07 47.67 43.73 42.75 42.70 42.90 41.37 46.44 44.69 46.06 48.18 48.38 50.99 46.22 45.84 43.70 43.00 39.09 45.98 42.57 37.28 41.84 47.94 49.60 50.15 50.26 49.01 49.88 50.66 51.43 50.98 52.26 52.01 51.10 50.04 51.55 51.29 50.85 50.73
51.06 51.49 51.75 52.07 52.31 52.26 52.30 52.13 52.39 51.74 51.45 53.04 52.15 50.37 47.99 45.55 37.77 40.43 38.60 40.53 41.46 46.89 47.37 44.15 43.16 45.98 47.33 48.90 46.99 44.69 42.37 41.57 46.06 42.14 38.81 40.75 46.59 48.43 49.34 50.74 50.26 49.36 50.18 50.92 51.37 50.96 51.46 51.50 51.55 51.73 50.30 50.23 49.97 49.46
50.63 50.98 51.32 51.63 51.88 52.18 51.97 51.99 52.49 51.25 50.51 49.23 46.88 37.40 43.61 40.55 41.85 42.00 41.80 43.32 48.09 49.38 48.65 45.91 42.78 46.49 47.02 45.02 44.56 43.56 45.09 44.90 41.37 36.88 40.26 43.98 47.04 47.67 49.16 50.74 49.49 48.55 49.36 49.84 49.81 50.21 50.32 49.82 49.48 50.23 50.42 49.49 49.31 48.57
50.41 50.62 50.98 50.73 51.38 51.71 52.07 51.92 52.18 52.26 50.77 46.75 47.14 38.94 42.66 45.19 45.57 47.39 48.93 48.52 50.21 50.40 49.77 47.79 46.55 46.18 43.97 44.19 44.59 44.98 43.41 41.14 42.19 40.49 43.16 47.60 48.43 49.34 49.21 49.11 48.12 48.31 48.43 48.31 48.28 49.02 49.15 49.16 48.59 49.00 49.32 49.64 49.77 49.55
50.47 50.62 49.37 51.43 52.81 52.47 51.83 51.52 51.90 52.34 50.13 48.79 47.31 44.73 45.68 44.52 46.01 47.38 47.89 48.10 50.40 50.35 50.41 49.89 46.82 43.49 43.49 44.21 43.39 43.12 42.33 41.18 42.30 44.49 49.04 50.78 50.16 49.66 49.56 49.90 49.92 49.23 48.38 48.30 48.17 48.41 48.48 48.04 50.01 49.06 49.53 49.87 49.34 48.97
50.35 47.61 52.27 52.40 52.64 52.29 51.67 50.90 51.89 47.82 46.54 45.99 44.80 45.50 44.82 45.47 46.17 47.95 46.85 47.89 51.39 50.25 46.98 47.79 44.35 44.03 46.64 42.66 42.56 44.23 42.25 43.28 49.00 50.17 51.70 51.30 51.30 51.04 51.15 50.92 50.94 51.46 50.89 50.50 48.88 48.63 48.50 49.28 49.72 49.72 47.56 49.24 47.98 50.56
47.74 51.03 52.03 51.61 51.71 51.67 51.37 50.52 48.71 46.93 43.44 45.51 43.91 43.65 45.59 47.16 46.61 47.40 49.77 50.46 51.04 50.35 49.66 47.22 49.98 44.06 43.32 43.42 42.52 45.67 49.37 50.51 51.33 51.67 52.97 52.77 53.60 52.86 52.65 52.38 53.25 53.35 52.31 51.25 50.44 49.55 48.97 49.62 49.85 49.02 49.50 49.75 49.41 50.07
49.76 50.52 52.16 51.91 51.96 50.42 47.33 47.76 48.52 42.89 43.90 45.16 44.46 45.80 45.43 46.81 49.44 49.29 51.21 51.51 52.19 53.13 50.56 49.55 46.86 44.55 44.64 49.44 48.51 49.07 49.72 50.89 52.52 53.85 55.30 55.56 55.32 54.95 54.57 53.91 53.04 51.37 50.61 49.01 48.34 48.05 47.70 48.03 49.61 50.10 50.23 49.61 48.18 47.08
50.53 50.82 51.29 52.32 51.94 48.28 46.27 46.57 50.02 44.93 41.58 43.84 45.10 44.48 45.24 46.24 48.39 48.93 49.56 50.45 50.25 50.05 48.19 47.36 48.03 48.28 48.90 49.82 52.08 51.60 51.77 51.45 52.99 52.10 52.84 53.77 55.16 55.94 54.75 52.72 50.52 48.00 46.78 46.65 46.96 46.13 46.33 46.08 46.34 47.20 48.40 47.72 46.79 45.54
50.18 51.52 51.17 51.24 50.33 48.92 46.73 47.11 45.45 46.66 47.80 46.49 47.58 47.10 46.22 46.55 46.50 46.55 47.05 49.91 47.73 46.90 45.98 47.84 48.94 50.72 53.93 55.06 53.53 52.46 50.94 51.30 51.76 51.79 52.03 52.76 54.11 54.49 52.20 50.92 49.00 46.98 45.62 44.72 44.78 44.74 44.91 45.09 45.73 46.55 46.36 46.18 47.18 46.36
51.10 52.67 50.52 50.47 48.07 48.62 46.77 47.91 47.54 49.80 47.76 47.44 49.30 49.10 46.95 44.95 45.41 46.68 48.49 46.58 46.30 47.21 49.29 48.22 48.23 49.13 53.45 53.52 53.69 53.36 53.81 53.06 53.14 53.41 51.77 51.42 53.13 51.74 50.91 50.30 48.94 46.98 46.65 45.78 45.36 45.46 45.24 45.64 45.92 46.10 45.53 43.96 45.76 45.81
51.01 51.23 49.68 48.86 45.53 43.22 40.93 47.91 44.94 46.86 43.98 46.84 49.03 45.65 45.91 46.12 48.03 51.27 47.83 48.71 48.76 49.39 50.28 51.97 53.44 52.07 54.78 54.30 52.67 53.27 54.11 55.05 54.11 53.94 54.98 53.81 53.63 53.49 51.94 49.82 49.57 47.99 46.41 46.14 47.29 46.21 46.43 45.69 45.35 44.31 43.07 44.70 43.65 41.81
51.09 48.63 46.41 45.85 44.47 40.68 46.46 46.20 48.04 46.00 47.53 44.23 45.22 45.63 46.93 47.11 50.77 48.33 44.37 46.55 49.64 52.12 51.65 51.28 52.76 52.75 52.82 51.52 51.02 51.36 50.80 50.92 52.10 53.73 54.86 54.76 52.45 52.53 52.86 51.66 49.85 48.82 48.87 47.93 47.80 47.34 44.93 44.84 43.67 44.07 44.19 44.97 43.04 41.67
42.54 41.46 43.47 36.92 47.11 45.20 44.78 44.09 45.43 43.79 44.67 45.13 46.10 44.82 47.09 48.91 45.41 46.26 45.06 48.63 49.84 50.14 51.23 51.54 53.39 52.94 52.56 52.18 52.26 52.94 56.24 55.36 54.49 52.95 53.55 54.62 53.68 52.60 50.07 49.20 48.99 48.75 49.35 48.52 47.48 44.97 44.49 43.74 43.58 44.48 44.90 44.24 43.45 42.90
37.07 42.35 39.25 44.26 44.62 44.01 44.59 44.35 45.05 44.64 45.69 45.81 46.00 47.20 47.88 45.44 43.90 43.96 47.00 48.67 50.18 51.88 51.52 50.93 52.13 52.05 52.59 53.31 52.23 52.62 54.60 56.70 55.24 52.73 52.50 53.50 53.85 52.01 49.12 47.22 46.98 48.06 49.41 50.16 48.04 47.02 47.78 46.01 45.10 44.82 44.31 44.30 42.73 45.06
37.43 40.93 45.48 47.56 47.71 47.03 45.88 47.08 47.98 46.13 45.81 46.46 46.29 46.84 46.72 44.08 45.08 48.08 51.02 51.01 51.37 53.47 53.48 54.94 56.24 55.11 54.33 54.16 55.15 56.55 55.62 56.05 53.54 52.88 53.64 53.58 52.61 52.93 52.43 49.91 47.44 48.62 50.66 51.38 51.03 50.36 47.61 47.09 46.61 47.19 45.63 44.80 45.35 45.56
44.74 45.94 43.18 44.93 45.33 46.82 45.58 44.27 45.58 46.94 48.00 49.44 48.32 46.20 45.93 45.21 44.83 50.52 52.51 53.34 53.40 54.40 52.90 54.21 55.70 56.24 54.03 53.07 56.07 55.99 55.19 53.99 53.03 51.98 51.62 51.47 51.48 52.94 52.10 51.49 51.77 47.86 50.58 52.49 52.57 51.22 50.25 49.28 49.06 49.56 48.68 48.16 47.30 46.88
43.25 47.09 47.38 43.14 44.72 46.19 46.50 47.24 48.32 49.55 52.07 50.46 47.70 47.39 48.47 50.27 52.84 53.46 53.72 55.68 54.54 52.06 49.19 51.13 52.83 54.98 52.54 53.32 52.90 54.31 53.51 51.55 49.45 47.47 47.03 46.75 47.43 48.94 50.29 50.28 49.33 50.30 51.45 50.31 46.18 49.88 50.95 50.39 51.14 50.40 49.31 48.74 49.17 49.07
43.71 45.70 44.40 45.77 44.53 45.90 49.12 51.40 50.33 52.74 53.30 53.31 53.17 52.67 51.93 51.56 54.20 56.01 56.41 52.72 51.66 50.51 51.14 52.02 51.62 52.26 49.88 49.17 48.62 49.14 49.62 50.38 50.57 49.41 49.78 50.56 52.01 51.01 50.50 50.72 50.63 50.38 50.20 50.70 48.62 46.40 43.91 47.81 46.25 47.92 48.74 48.46 47.17 46.34
46.68 46.14 44.93 45.25 46.48 50.31 51.25 51.76 53.03 53.16 53.78 52.61 53.15 50.57 49.70 51.03 52.67 52.31 52.14 51.94 52.94 52.76 50.90 50.28 50.20 51.90 50.34 49.11 50.00 51.43 50.68 52.79 50.08 51.47 51.01 52.72 54.07 50.48 51.04 51.04 51.04 50.64 49.75 49.31 48.97 48.74 49.14 48.09 47.26 46.89 46.96 46.79 45.52 44.78
45.69 44.83 45.90 45.84 47.71 52.03 52.37 51.63 51.50 50.80 51.36 50.29 50.21 50.66 50.35 50.79 48.03 50.08 51.49 51.33 49.25 48.97 49.92 51.35 50.70 49.34 50.97 52.28 52.45 51.55 47.93 49.84 48.22 50.41 49.13 49.15 48.89 48.87 48.74 47.65 48.03 48.75 49.68 48.93 48.08 48.61 49.22 48.92 47.11 46.30 44.87 44.85 45.02 45.09
44.88 46.69 47.96 47.18 47.16 48.25 49.60 50.09 50.00 49.51 49.47 48.54 49.77 50.18 50.02 48.04 46.29 50.46 54.46 55.15 51.87 49.23 49.06 49.45 49.06 49.13 49.27 49.19 48.65 47.31 44.81 45.16 41.28 40.37 40.74 41.40 42.70 45.60 47.41 47.28 47.82 48.18 47.89 46.96 47.83 49.74 49.13 48.39 47.52 47.09 45.74 45.19 46.69 48.02

GFSWCAN_sfc_wetblb_138.txt.gz
Wetbulb
54.51 53.74 53.75 53.48 54.18 53.59 53.65 53.75 53.46 53.60 54.22 54.52 54.70 55.53 55.76 55.39 55.69 53.22 49.13 48.35 45.95 46.11 48.11 53.50 54.22 47.24 46.25 42.68 41.60 42.30 42.81 43.18 40.21 37.93 37.25 36.32 34.86 36.67 36.13 37.12 35.63 34.89 34.55 33.73 34.05 33.78 33.35 49.52 49.48 43.66 45.13 49.31 52.44 54.63
53.89 53.79 53.35 53.32 53.45 53.06 53.41 53.38 53.55 54.20 54.30 53.94 54.42 55.37 55.51 55.36 55.24 54.51 47.66 48.62 49.29 44.86 47.40 52.91 55.79 57.49 52.74 46.98 42.70 39.73 42.74 40.94 43.01 39.21 38.05 38.00 37.34 35.20 33.45 33.84 38.17 34.95 36.87 36.50 37.79 37.26 42.75 47.54 47.62 49.65 49.59 51.19 53.53 55.00
53.37 53.16 53.00 52.99 53.00 52.92 53.08 53.24 53.43 53.69 53.50 53.48 53.96 54.84 55.79 55.48 55.10 54.49 48.74 47.68 47.14 47.46 50.63 50.86 53.16 49.14 47.76 47.69 48.15 45.23 44.36 45.09 42.52 42.24 40.23 38.41 37.74 37.42 34.67 35.62 37.03 40.09 40.64 39.99 40.35 41.96 46.34 47.58 49.77 50.29 50.96 50.78 52.53 56.61
53.12 53.19 52.69 52.62 52.78 52.74 52.90 53.04 53.29 53.26 52.99 53.28 53.59 54.55 55.46 55.40 55.03 55.01 51.43 46.47 45.59 45.70 46.65 50.07 52.81 48.37 49.30 49.15 50.56 49.18 49.06 45.53 43.87 41.15 36.99 35.98 36.76 39.21 35.92 38.56 37.97 40.57 40.70 39.63 39.58 42.63 46.39 48.70 49.52 50.99 51.52 54.33 55.46 58.48
52.56 52.67 52.38 52.40 52.58 52.47 52.65 52.94 53.00 53.04 52.81 53.22 53.21 53.52 55.32 55.38 54.43 54.24 53.61 52.39 49.62 46.73 46.22 48.24 50.24 49.58 47.14 49.84 50.44 49.11 46.94 43.74 41.28 40.62 38.24 37.83 36.92 40.23 36.84 37.03 35.87 42.02 40.06 38.97 38.08 43.15 45.50 44.13 47.85 51.79 51.66 56.12 58.00 57.38
52.25 51.99 51.82 52.07 52.38 52.25 52.54 52.76 52.94 53.00 52.71 53.39 53.53 53.13 54.61 54.78 54.15 50.12 42.62 49.49 51.65 47.63 48.22 45.37 48.28 45.57 47.48 49.06 48.44 47.28 46.27 43.63 42.05 41.21 39.01 38.91 43.72 40.83 36.52 34.39 39.76 41.34 42.81 43.36 43.69 43.64 45.93 48.89 50.16 52.47 51.46 52.84 58.02 57.04
51.45 51.24 51.36 51.71 52.11 52.19 52.59 52.87 52.99 52.86 52.88 53.40 53.56 53.25 53.68 53.92 51.55 44.39 44.76 47.88 50.61 49.54 48.19 46.00 42.43 46.17 47.85 46.77 46.03 45.00 43.96 42.92 42.79 40.06 39.70 42.91 41.84 40.16 37.06 36.05 42.53 43.68 46.31 45.41 47.65 48.87 47.23 49.96 48.58 51.72 53.58 54.88 55.48 57.06
51.18 50.86 50.42 51.11 52.02 52.27 52.61 52.56 52.92 52.95 52.89 53.41 53.11 53.03 52.73 53.06 51.85 47.48 48.28 51.66 49.51 48.58 50.23 43.56 42.25 43.66 47.12 43.75 43.31 43.75 42.56 41.61 40.89 39.42 41.00 41.92 42.16 40.16 37.90 40.90 41.56 43.89 48.30 49.47 49.39 48.21 47.34 48.34 49.24 51.28 53.21 57.22 56.47 55.68
50.80 50.65 50.51 51.03 51.85 52.30 52.47 52.46 52.86 52.86 52.79 53.24 52.98 52.65 47.78 45.34 41.41 45.98 54.61 54.11 49.89 51.34 47.14 44.07 43.33 40.25 46.92 43.08 43.90 43.99 42.75 40.15 41.62 38.67 38.32 42.63 38.46 36.50 41.99 42.66 43.95 45.46 48.02 49.19 49.63 49.14 49.99 49.82 49.06 49.71 51.87 54.55 55.50 55.06
50.69 50.66 50.65 51.01 51.67 52.23 52.56 52.35 52.70 52.65 52.51 52.83 49.36 45.72 42.13 46.25 54.19 54.53 49.82 47.43 47.41 50.03 51.35 47.82 45.59 43.78 46.24 42.84 42.29 43.21 41.54 40.21 38.81 41.25 41.92 38.93 37.25 41.65 43.74 44.42 45.91 46.94 48.80 49.25 47.79 46.50 47.31 47.10 48.70 48.58 50.15 51.54 54.00 55.87
51.00 50.78 50.86 51.39 51.67 52.16 52.40 52.23 52.53 52.09 52.42 50.38 48.47 48.39 49.96 53.24 47.48 45.25 43.89 41.58 41.77 41.66 45.32 48.38 45.75 44.03 48.33 44.72 42.85 43.83 41.25 40.33 37.47 40.12 40.91 37.74 37.02 42.05 44.60 44.49 45.59 46.98 49.45 49.81 50.62 50.56 49.84 48.93 50.05 49.50 50.35 51.74 53.30 56.11
50.85 50.69 50.94 51.33 51.62 51.87 52.20 52.15 51.93 48.61 48.73 48.21 48.30 50.03 50.55 48.68 44.28 41.50 40.58 40.73 40.86 39.76 43.20 45.87 47.30 47.01 47.53 49.06 46.25 44.01 41.53 41.28 38.37 42.55 40.25 36.24 41.10 43.79 44.78 45.20 46.61 46.07 48.98 50.03 50.63 50.58 50.45 49.99 50.99 50.38 50.95 52.38 54.01 55.81
50.65 50.56 50.53 50.82 51.29 51.77 51.85 51.77 51.76 51.64 50.25 51.02 49.76 48.74 45.09 43.78 36.92 38.87 36.82 38.69 38.05 42.65 43.69 44.16 45.25 46.41 47.06 47.60 45.56 43.52 40.88 39.71 43.56 39.76 37.75 40.74 43.42 44.44 46.24 46.39 46.89 46.65 48.73 49.54 50.22 50.80 50.92 50.72 50.90 51.25 51.60 51.91 53.01 53.69
50.15 50.33 50.22 50.30 50.70 50.97 51.20 51.34 51.81 50.42 47.81 46.22 45.48 37.72 41.82 39.84 39.78 39.79 39.92 40.51 43.66 44.61 44.74 42.90 42.09 43.83 43.53 44.57 45.06 42.36 42.93 43.14 39.30 35.72 39.27 42.96 45.16 45.89 47.20 47.24 47.14 46.80 47.59 48.36 49.23 49.84 50.32 50.22 50.46 51.43 51.40 51.45 51.13 51.07
49.85 50.06 50.28 50.37 50.85 51.42 51.43 51.08 51.50 48.74 49.58 45.27 44.23 38.01 42.53 43.79 43.77 44.50 45.13 44.27 45.86 48.39 46.37 43.16 44.19 45.12 42.60 42.75 43.16 42.35 40.95 40.52 40.20 39.52 42.63 44.38 45.07 46.02 46.72 47.10 47.18 46.94 46.52 47.07 47.55 48.52 49.23 49.53 49.41 48.53 49.21 49.48 50.16 50.17
49.72 49.89 48.99 50.58 51.30 51.99 51.49 50.70 49.37 49.20 49.27 47.09 45.18 42.57 44.33 41.88 43.48 43.15 44.18 44.38 47.56 47.95 49.54 48.15 44.29 42.77 42.22 41.42 41.31 41.12 40.77 39.47 41.79 44.42 45.44 44.85 45.10 45.56 46.64 47.51 47.29 46.87 46.47 46.54 46.99 47.73 48.12 48.17 48.36 48.36 47.44 48.05 48.61 49.49
49.40 45.89 50.94 51.82 52.00 51.40 51.12 49.63 50.77 47.44 45.82 44.14 41.00 44.24 42.19 42.60 43.54 45.12 46.27 45.71 47.64 47.28 44.74 46.21 43.41 43.78 44.43 39.84 40.11 42.99 41.82 44.05 45.69 46.25 46.74 47.51 47.53 46.27 46.71 46.97 46.78 46.63 46.36 46.03 46.20 46.38 46.41 46.84 47.00 47.23 46.56 47.07 47.59 48.21
46.06 50.95 51.76 51.79 50.70 50.46 49.57 49.57 47.88 46.24 42.71 42.09 38.94 40.23 43.15 43.55 45.37 47.25 48.92 49.21 46.34 46.03 47.14 44.57 47.86 44.60 42.36 41.05 39.69 44.27 46.25 47.65 46.83 47.71 49.57 49.61 48.27 47.35 48.32 47.25 47.56 47.38 46.39 46.24 46.03 45.47 46.18 46.75 47.22 47.85 47.15 47.19 47.40 47.79
49.78 49.89 50.86 51.84 50.93 49.83 46.51 46.94 47.27 42.88 43.88 44.44 42.18 41.79 42.47 42.93 44.39 45.69 47.12 50.24 50.15 48.99 48.00 45.81 43.75 42.18 43.19 45.42 47.82 48.43 50.47 49.20 48.91 49.50 50.32 49.67 49.24 49.31 49.32 49.52 49.13 48.86 48.38 47.19 45.83 46.19 47.01 47.76 48.50 47.77 48.35 48.79 48.46 49.55
50.24 50.49 50.59 51.39 51.68 48.10 45.84 45.42 48.93 44.24 41.47 43.52 42.59 40.09 41.13 41.11 42.49 43.56 45.05 45.97 49.02 47.71 44.07 43.92 43.35 46.00 46.76 49.65 51.88 51.46 51.57 51.95 51.30 50.29 50.04 50.78 51.40 51.40 51.60 52.33 50.95 50.10 48.60 47.85 46.85 45.06 46.62 46.76 47.77 48.41 49.80 49.90 49.56 49.05
49.46 49.39 50.63 50.64 49.83 48.60 46.58 45.82 45.37 45.55 45.75 44.88 47.37 46.01 43.37 41.95 41.96 42.33 43.00 46.74 45.62 45.12 43.94 45.50 47.24 49.63 51.82 52.48 52.71 52.77 52.69 52.16 51.37 51.91 51.22 51.15 52.72 53.22 52.94 52.76 52.25 50.69 49.30 47.66 47.55 46.28 46.21 47.36 47.56 48.22 49.07 48.99 49.80 49.04
47.81 51.54 47.70 49.57 46.29 47.84 46.09 45.77 45.08 47.10 45.89 46.71 47.34 48.97 46.57 42.42 41.85 42.83 45.16 44.00 43.35 44.67 45.56 46.77 47.77 48.98 50.20 51.33 51.37 52.83 52.38 53.24 53.38 52.40 49.85 51.59 53.15 51.91 50.66 50.50 50.40 49.03 47.80 47.62 47.51 47.21 46.93 46.76 47.39 47.55 48.33 48.14 46.31 47.07
50.63 50.82 48.84 48.18 44.36 42.03 41.26 46.25 44.66 44.96 43.00 45.13 48.59 46.34 45.51 45.95 46.09 46.84 43.50 45.11 47.07 48.22 49.17 48.87 48.75 49.45 50.43 52.66 53.45 53.18 53.79 52.49 51.59 51.61 52.20 53.13 52.55 51.56 50.68 49.15 49.43 48.41 47.15 46.80 47.81 47.47 46.52 44.14 45.46 47.13 47.08 46.40 46.35 45.99
49.82 47.48 45.10 44.38 42.93 39.79 45.20 43.69 45.72 43.12 44.32 42.79 43.19 43.68 45.94 46.60 49.23 46.42 44.17 46.32 48.30 50.29 49.34 48.06 49.84 49.88 51.63 51.27 51.31 52.19 53.07 53.06 51.92 51.70 52.13 52.10 51.03 50.09 50.43 49.86 49.42 49.69 50.09 49.38 48.18 47.40 46.87 46.96 44.43 46.35 46.56 45.68 45.08 45.42
41.23 40.56 42.27 36.52 45.77 42.87 42.23 41.70 42.82 42.83 42.79 43.97 41.90 42.38 43.00 45.96 42.79 42.05 42.71 46.87 49.00 48.70 49.44 50.65 51.58 51.52 50.70 50.40 50.43 51.14 51.61 52.28 51.03 50.72 52.27 52.99 51.71 51.37 51.33 52.09 50.79 49.86 49.84 48.13 47.33 47.29 46.99 47.23 46.73 45.94 45.15 45.00 45.10 45.00
36.82 42.48 39.04 42.94 43.43 42.85 44.09 43.16 44.72 44.54 44.52 44.56 43.92 44.91 44.77 44.62 43.67 42.61 46.32 49.07 47.48 48.94 49.78 49.79 50.34 50.14 51.02 50.65 49.46 50.45 51.71 52.06 52.45 51.39 51.54 53.66 53.27 52.38 50.60 49.95 48.70 48.37 49.58 50.15 48.80 48.48 48.13 46.43 45.84 45.87 45.41 44.61 41.41 45.71
37.51 39.66 42.33 43.78 44.59 46.42 44.87 45.08 45.92 44.06 44.24 45.31 46.83 46.33 45.67 42.38 41.48 45.17 49.14 50.21 50.16 51.55 52.51 52.54 52.11 51.74 51.19 51.42 52.30 53.14 54.38 54.51 54.13 53.95 54.84 54.60 53.84 53.45 52.78 50.92 49.47 50.16 49.67 49.65 49.52 49.30 48.45 47.61 46.01 46.01 45.95 45.42 45.52 45.68
41.85 43.92 41.21 45.08 45.02 45.78 42.52 43.30 43.44 45.01 46.46 49.01 48.35 45.24 44.56 45.22 44.49 48.81 50.28 51.75 52.57 53.56 53.34 55.56 54.88 54.50 53.85 54.32 54.41 54.83 52.33 51.65 51.50 51.00 50.80 50.39 50.58 50.60 51.05 50.97 50.71 43.68 49.84 50.81 50.51 49.88 49.63 49.32 47.88 46.62 46.31 45.97 45.95 46.78
41.03 43.20 44.56 42.17 43.34 44.08 45.12 46.21 47.08 48.87 50.64 49.76 47.32 47.03 47.53 50.13 51.45 52.11 51.60 51.94 51.76 51.96 50.72 50.35 48.76 52.66 53.69 53.87 53.89 52.97 52.12 51.77 49.84 47.82 47.36 47.43 48.88 50.09 49.89 50.05 49.36 50.11 51.36 51.11 45.54 49.47 51.84 50.15 49.15 48.37 47.45 47.84 48.97 49.52
40.80 44.78 43.32 43.03 43.25 45.34 47.98 49.97 49.42 51.96 53.01 52.34 52.29 51.19 50.69 50.72 51.32 52.16 50.75 49.04 50.46 51.39 51.85 49.36 48.38 51.26 49.81 50.24 49.29 49.52 49.75 49.90 50.50 49.66 48.11 48.44 49.84 51.01 50.48 50.12 50.31 50.61 50.58 51.02 50.06 48.39 43.31 48.42 46.74 50.30 49.54 49.77 49.90 49.59
42.50 43.18 41.88 43.43 45.86 49.31 51.24 52.37 52.67 52.80 52.52 51.87 52.11 49.76 48.67 49.49 48.68 48.14 48.64 49.53 49.78 49.45 49.07 48.10 47.87 47.65 47.94 47.66 47.87 47.93 48.58 49.45 49.82 51.73 51.54 51.19 52.07 51.09 50.70 50.09 49.85 50.03 50.12 50.08 50.04 50.10 49.94 49.16 49.01 48.77 48.93 48.69 48.71 47.43
41.53 41.90 43.51 45.25 46.98 51.33 52.55 50.31 50.22 48.76 49.25 49.09 47.71 47.35 47.62 45.79 45.02 47.70 48.69 49.15 49.43 49.19 47.26 48.26 49.07 49.28 49.36 49.75 49.06 49.02 44.05 49.68 49.59 49.20 51.05 51.15 51.33 51.68 51.78 51.04 50.62 50.65 50.47 50.13 49.76 49.96 50.14 49.50 48.79 49.00 48.16 48.60 48.77 48.87
41.32 43.18 46.45 47.26 46.82 47.95 50.29 50.29 49.15 48.35 47.31 46.27 47.28 47.43 46.48 46.85 46.22 48.32 49.82 49.20 49.49 49.43 49.08 49.22 49.18 49.10 50.17 50.54 49.62 47.70 44.16 46.51 44.00 41.18 43.01 43.08 42.73 44.57 48.44 49.41 50.59 51.20 50.44 49.62 49.16 49.54 49.62 49.61 48.92 48.46 48.40 48.15 48.01 47.46

GFSWCAN_sfc_wetblb_141.txt.gz
Wetbulb
55.60 55.12 54.00 53.65 53.57 54.10 53.58 53.69 53.60 53.42 54.31 54.85 54.18 54.91 55.78 55.49 55.34 54.95 52.56 53.20 50.90 49.72 52.68 55.76 57.56 52.43 50.99 50.58 49.65 49.75 50.28 50.79 50.15 48.08 47.88 46.31 45.80 46.61 45.86 46.26 45.54 44.85 44.38 44.49 44.24 43.45 40.32 53.26 53.66 49.36 53.31 56.00 59.32 60.56
54.75 53.94 53.84 53.27 53.15 53.48 53.14 53.34 53.26 53.56 54.01 54.05 53.77 54.12 55.48 55.46 54.97 54.97 49.60 52.33 52.77 49.17 51.97 54.01 55.54 57.09 57.92 57.24 50.49 48.25 51.40 51.20 51.59 48.95 48.34 47.75 46.25 45.26 45.59 43.97 47.10 44.61 47.17 46.74 46.82 46.91 50.00 54.27 54.54 55.42 55.49 56.80 58.62 60.46
54.03 53.46 53.07 52.78 52.60 52.99 52.95 53.14 53.26 53.44 53.58 53.33 53.73 53.87 54.91 55.74 55.21 54.69 52.00 52.74 51.21 49.65 53.73 54.92 55.83 55.33 57.50 58.80 57.72 52.88 51.64 52.13 50.89 51.91 51.02 49.69 48.22 47.82 45.39 46.32 47.05 48.58 48.18 49.69 48.65 49.94 52.01 53.78 54.76 55.43 56.61 56.69 57.94 61.97
53.42 52.90 53.27 52.71 52.30 52.71 52.75 53.01 53.18 53.28 53.56 53.19 53.38 53.46 54.01 55.68 55.17 54.89 52.26 52.44 51.06 49.78 49.83 54.22 58.91 55.92 55.36 54.20 53.85 54.52 54.61 51.82 51.47 51.06 50.22 49.41 48.00 47.82 47.89 47.79 48.48 49.66 49.94 49.74 49.50 51.13 51.44 54.49 55.61 56.64 56.22 57.08 58.87 62.11
53.13 52.73 52.81 52.33 52.17 52.44 52.40 52.75 53.01 53.26 53.46 53.11 53.54 53.73 53.56 54.97 54.57 54.63 54.36 52.92 53.19 49.43 49.08 52.96 57.23 54.88 53.65 55.78 55.50 55.86 54.60 52.69 51.65 49.95 50.06 48.89 48.03 48.80 47.29 47.36 47.26 49.83 50.76 48.38 47.55 54.66 54.77 53.45 57.10 57.84 56.78 58.25 60.92 61.65
52.65 52.25 51.78 51.71 51.94 52.15 52.32 52.75 52.87 53.20 53.24 52.95 53.40 53.61 53.28 54.00 54.27 51.75 48.03 52.51 53.73 53.05 48.79 49.87 56.78 53.26 53.37 54.89 54.47 53.67 53.48 51.63 51.41 51.38 49.35 48.55 49.68 50.79 46.87 46.53 51.67 51.71 52.50 54.58 53.15 52.39 54.67 54.83 55.12 57.61 57.00 60.38 61.92 62.09
52.66 51.65 51.14 51.31 51.17 52.05 52.30 52.74 52.86 52.92 53.11 52.85 53.47 53.36 53.33 53.13 53.12 49.13 47.93 50.09 51.77 53.07 50.13 50.17 51.56 52.71 53.06 53.43 52.78 52.18 51.65 50.43 52.69 49.60 50.49 51.68 50.68 50.50 49.12 46.90 53.14 51.25 53.19 52.70 53.92 54.06 53.65 55.17 54.99 56.93 57.22 58.23 60.55 61.87
52.17 51.69 51.07 50.87 50.76 51.43 52.15 52.72 52.92 52.97 53.21 53.11 53.42 53.12 52.58 53.15 52.57 50.47 53.57 52.59 52.11 50.09 52.47 49.32 48.36 49.74 52.91 51.41 50.44 51.65 50.87 51.11 49.58 49.21 49.40 50.17 49.08 49.70 47.92 51.96 53.24 51.52 52.84 53.37 53.06 54.75 54.73 57.41 56.78 56.91 58.40 59.35 59.26 60.15
50.82 51.04 50.76 50.67 50.94 51.63 52.00 52.70 52.74 52.83 53.14 52.97 53.12 52.90 51.29 50.30 47.76 49.13 54.21 53.60 53.15 51.61 49.77 49.43 46.88 45.94 52.57 50.56 51.83 51.17 51.11 47.93 49.44 48.80 48.21 49.99 48.24 47.25 52.09 53.51 52.16 52.04 53.67 55.27 55.29 54.55 55.04 55.42 56.19 56.56 57.03 59.24 58.96 59.73
50.78 50.50 50.74 50.90 51.04 51.86 51.97 52.53 52.70 52.77 52.45 52.70 50.31 46.90 45.89 48.59 51.12 55.18 52.32 48.50 49.06 50.16 51.80 50.00 50.67 48.57 51.64 50.41 49.87 50.32 49.36 48.84 46.99 49.72 47.81 46.86 47.33 52.01 53.93 54.75 55.52 54.84 55.09 56.82 53.34 53.10 53.99 54.29 54.55 55.55 56.51 59.37 60.80 60.54
51.03 51.04 51.04 50.92 51.28 51.60 52.04 52.45 52.51 52.33 52.25 51.59 49.36 49.48 53.52 54.00 53.63 49.83 46.14 46.71 47.95 45.99 50.01 52.71 50.49 50.39 52.99 49.41 49.49 50.41 48.86 48.31 44.88 47.63 47.04 46.17 46.03 50.40 53.95 53.47 54.92 55.93 55.67 56.66 57.72 57.72 57.89 57.27 55.95 55.44 56.30 57.34 59.54 60.95
51.11 50.81 50.74 50.83 51.24 51.56 51.81 52.09 51.94 50.83 50.01 49.33 49.65 51.35 51.73 51.69 48.54 44.62 44.62 44.92 44.38 44.46 47.78 50.32 52.48 52.60 51.79 53.81 51.27 49.07 47.67 46.97 44.09 48.23 46.62 45.00 50.24 53.43 52.59 52.58 53.90 54.87 55.75 56.27 57.08 57.17 57.20 56.90 57.23 57.34 57.12 57.62 58.46 61.28
50.56 50.54 50.48 50.58 50.84 51.07 51.61 51.66 51.77 51.71 51.31 51.94 50.13 49.69 48.90 47.71 40.66 41.58 39.23 42.53 42.52 47.80 48.77 49.79 49.97 52.88 51.38 53.49 50.10 50.56 46.03 45.33 48.86 45.92 45.89 47.82 54.24 53.39 53.52 53.28 52.75 54.41 55.27 56.54 56.46 57.15 57.39 57.19 57.21 57.82 57.57 59.04 59.55 60.49
49.99 50.06 50.28 50.33 50.40 50.67 50.90 51.12 51.26 51.58 50.87 49.42 46.70 38.02 42.53 42.20 43.53 45.09 44.76 45.90 48.54 48.87 49.97 49.15 49.14 49.67 50.79 49.86 50.11 45.95 48.36 46.70 42.93 42.80 43.58 50.32 56.21 57.19 54.72 54.15 53.22 52.82 54.33 55.84 56.57 56.96 57.01 56.80 56.73 57.66 58.71 59.42 59.72 59.51
49.51 49.76 49.93 50.26 50.79 51.04 51.29 51.05 51.14 52.04 51.40 47.32 46.92 38.95 42.78 47.14 47.84 48.38 48.60 48.08 49.84 51.07 51.06 48.04 48.66 50.15 48.16 47.86 48.96 47.15 43.34 42.64 44.38 44.11 48.41 52.89 57.87 55.43 54.49 54.17 53.98 54.23 54.29 55.04 55.50 55.75 56.37 56.68 56.46 56.48 57.51 58.85 59.92 59.78
49.37 49.70 49.82 50.77 50.87 52.09 51.70 51.42 51.70 52.26 50.61 48.44 47.46 44.34 47.37 46.17 46.31 47.42 48.23 48.34 51.72 51.88 52.46 51.36 48.06 46.28 46.71 46.89 44.79 44.60 43.43 42.49 45.86 48.69 52.94 55.18 55.37 55.03 55.57 55.66 55.08 55.65 54.86 55.05 55.37 55.61 56.17 56.02 56.07 56.71 56.99 58.03 58.63 58.87
48.99 48.05 50.66 51.88 51.89 51.26 51.14 52.47 52.07 48.21 46.88 45.55 44.60 47.81 47.01 46.21 46.36 47.79 49.10 50.13 52.64 51.26 49.67 49.77 45.36 44.81 48.59 44.45 43.36 47.07 45.65 48.91 49.83 51.66 53.13 55.43 56.74 56.57 55.43 55.05 54.57 54.96 55.19 55.30 55.19 55.17 55.71 55.83 56.16 55.63 55.31 56.29 57.41 57.79
47.69 51.32 51.90 51.78 51.87 51.55 51.77 51.38 49.45 47.11 43.19 45.48 43.43 44.94 47.01 48.46 47.71 47.80 50.66 50.70 51.50 51.23 50.84 48.27 51.29 46.41 44.59 43.19 45.04 48.97 51.31 52.44 53.78 54.06 54.54 55.29 56.84 56.24 54.97 55.49 55.35 55.69 55.46 54.95 54.88 54.68 54.36 54.26 55.12 55.91 57.34 55.42 54.94 54.94
49.96 50.09 50.71 51.83 52.18 51.03 47.81 48.16 48.63 43.11 44.88 46.40 46.32 46.21 46.63 47.37 49.29 50.43 50.45 51.05 52.57 52.92 51.40 50.81 47.56 46.09 47.16 50.83 50.76 51.81 52.89 53.92 53.27 54.24 55.38 56.34 56.38 54.74 54.13 55.68 54.89 54.42 54.60 54.06 53.27 53.18 54.24 55.32 55.94 55.94 54.98 54.07 54.26 54.31
50.01 50.48 50.36 51.42 52.00 49.11 46.27 46.82 50.08 45.19 42.58 45.29 45.77 44.44 45.95 46.46 48.24 48.44 48.72 49.09 50.81 49.14 47.96 47.54 48.13 50.88 52.44 55.19 56.58 55.95 55.67 55.80 55.25 54.20 54.44 56.82 55.69 54.43 54.58 54.34 54.04 55.14 53.87 53.85 53.18 49.53 53.03 52.92 53.94 54.59 54.12 53.91 53.51 53.25
49.62 50.06 50.74 51.48 50.34 49.54 46.71 46.48 45.50 45.71 46.33 44.56 47.59 45.66 45.20 45.60 46.17 46.14 46.35 48.88 47.00 46.32 45.97 49.27 51.05 54.14 56.14 56.86 57.40 57.05 56.47 56.71 55.88 55.19 53.09 54.79 56.25 56.34 56.23 56.31 56.03 56.01 55.65 53.92 53.31 51.61 49.88 52.91 53.71 54.21 53.56 53.64 54.03 52.44
49.96 51.26 49.93 49.90 46.75 47.67 46.76 48.15 46.16 47.59 45.95 46.17 46.98 48.29 46.64 45.09 46.47 46.71 49.07 46.79 46.22 47.54 49.31 50.19 51.79 52.96 54.02 54.72 55.73 56.15 56.28 56.07 55.50 54.82 50.29 51.96 55.98 55.70 56.04 56.25 56.08 55.52 55.42 54.76 54.90 54.89 54.72 53.71 53.64 53.98 53.89 53.96 52.61 53.61
50.50 50.76 49.26 47.64 44.66 42.12 41.68 48.94 44.70 46.20 42.93 45.80 48.96 46.48 46.71 47.05 48.27 49.96 46.05 47.79 49.16 51.52 51.67 52.55 54.19 55.45 54.84 56.04 56.28 55.99 56.71 54.85 55.00 55.95 54.96 55.26 56.26 56.46 56.27 55.68 55.85 55.48 54.23 54.31 55.31 54.42 54.06 48.80 49.90 52.70 52.81 52.63 53.35 51.69
49.93 47.43 44.70 44.15 42.84 40.20 46.01 44.12 45.59 45.37 45.83 45.54 45.48 45.24 47.18 48.90 49.15 47.34 45.28 48.85 49.93 51.95 50.92 53.07 53.58 52.54 53.54 54.45 54.29 54.48 55.30 55.54 54.99 55.99 56.57 55.98 56.07 56.30 56.67 56.29 55.01 55.66 56.44 54.51 54.16 53.25 52.02 50.86 48.28 52.45 52.56 51.57 50.18 49.84
41.03 40.50 41.95 36.34 45.31 42.03 42.04 43.43 44.46 45.27 43.36 45.85 44.83 45.96 47.76 50.13 47.44 46.78 46.67 48.48 50.55 51.80 53.75 54.22 52.46 52.26 52.18 53.71 54.98 54.93 55.17 56.25 55.34 55.08 57.65 56.04 56.16 55.31 54.26 54.20 54.28 55.31 54.69 53.20 51.90 51.65 52.28 52.00 52.38 52.22 51.41 51.20 50.91 50.80
35.71 42.15 38.80 42.89 44.00 43.51 44.07 43.06 44.29 44.26 45.48 45.28 46.21 49.14 48.95 47.01 44.16 43.86 48.49 51.54 52.20 52.59 53.32 54.15 54.67 53.73 53.91 55.14 54.98 54.21 54.38 56.22 57.05 55.24 56.18 56.82 56.38 55.72 54.18 52.54 51.32 51.47 54.10 53.56 51.09 51.48 51.20 51.56 51.46 51.08 51.15 49.93 43.98 50.53
37.02 40.80 44.99 46.91 45.19 46.06 44.72 46.76 47.63 46.03 44.45 44.61 46.71 47.54 46.06 40.28 41.71 47.78 52.10 52.08 52.17 54.63 55.28 55.70 55.80 55.23 55.18 55.68 56.22 57.11 57.53 57.29 57.49 57.58 58.01 58.46 58.35 58.21 56.27 53.85 52.67 53.41 53.56 53.67 53.72 53.08 52.11 51.82 51.81 51.94 52.01 52.22 51.89 51.45
43.53 44.26 42.42 45.90 45.10 46.22 44.02 45.40 45.41 45.27 46.09 47.54 48.17 44.65 44.54 44.29 46.69 53.35 53.96 53.57 53.79 55.32 56.48 56.38 57.19 56.68 57.47 57.14 57.40 56.18 56.05 56.35 56.08 55.91 55.24 54.62 54.98 55.63 56.11 56.43 57.12 45.32 54.00 54.91 54.92 54.97 54.40 53.51 53.26 52.87 52.45 52.34 52.41 52.17
42.75 45.77 45.56 43.63 44.43 44.89 46.36 46.10 47.05 49.73 51.54 49.94 46.94 46.10 48.48 53.31 54.04 54.66 55.29 53.62 55.25 55.78 54.58 54.47 55.43 55.45 54.81 55.33 56.66 55.63 55.90 56.26 55.06 53.45 52.75 52.83 53.64 53.90 55.78 55.74 54.43 55.58 55.79 54.76 45.50 50.54 54.79 54.59 54.13 54.40 53.74 52.87 52.71 53.20
43.06 45.97 43.77 44.06 43.66 45.05 48.31 50.25 49.75 51.96 52.63 52.97 53.27 53.14 53.99 55.25 54.77 54.53 55.30 55.47 55.51 54.63 54.96 55.89 55.84 55.37 54.11 53.46 53.16 54.82 56.04 56.35 56.60 55.39 53.83 53.98 55.00 55.73 56.21 56.04 55.95 56.10 56.26 55.73 55.39 53.36 44.34 51.62 47.91 52.98 52.11 52.67 52.69 52.37
45.18 44.81 44.32 45.27 46.00 48.82 50.67 52.85 53.12 53.27 53.27 52.78 53.82 51.95 52.13 53.20 54.06 54.61 55.78 56.23 55.77 55.52 55.68 55.37 55.30 56.65 56.17 55.60 55.32 54.99 54.72 56.44 56.65 56.93 57.23 57.47 57.40 57.23 57.32 57.20 57.26 56.79 56.33 55.99 55.81 55.24 54.39 53.75 53.78 53.36 52.74 52.70 52.82 51.11
44.61 44.08 45.47 43.64 46.21 51.17 52.55 50.67 50.32 50.36 50.94 51.00 50.21 51.90 52.29 51.96 50.71 54.09 55.26 56.60 56.36 55.08 50.00 54.42 55.08 54.78 55.82 55.78 56.08 55.98 45.41 56.38 55.79 55.93 56.95 57.41 57.48 57.51 57.10 56.74 57.08 57.02 56.84 56.16 56.02 55.59 55.16 54.86 54.17 53.57 53.26 52.97 53.24 53.61
44.97 45.91 47.58 47.37 47.48 48.40 51.52 51.48 50.26 48.80 49.57 49.14 49.66 51.25 51.69 51.45 49.72 53.62 55.69 55.11 56.27 56.24 56.77 56.50 56.11 56.22 56.47 56.11 55.44 53.10 49.20 52.59 45.62 42.10 44.12 44.75 46.44 50.22 56.19 57.09 56.90 56.90 56.38 56.02 55.82 55.58 54.85 54.38 54.19 53.73 53.83 53.75 53.31 53.43

GFSWCAN_sfc_wetblb_147.txt.gz
Wetbulb
56.36 56.28 56.52 56.06 55.25 54.52 54.15 54.48 54.09 54.09 54.13 54.40 54.81 54.76 54.73 55.24 55.97 55.48 58.35 62.45 57.48 55.60 57.02 58.99 60.65 60.29 59.45 57.17 54.16 56.22 55.17 55.94 54.89 51.45 49.90 50.80 48.26 51.15 49.16 51.69 51.22 50.14 49.00 48.06 48.40 45.89 44.38 57.44 56.47 54.27 58.34 61.34 60.51 62.82
55.94 56.04 55.76 54.95 54.50 54.07 54.05 53.81 53.62 53.62 53.84 54.34 54.61 54.12 54.43 54.70 55.70 54.77 56.37 62.29 60.79 55.65 56.04 59.56 60.54 62.25 62.04 62.61 59.65 58.39 56.78 56.87 56.39 53.44 53.31 53.06 50.94 51.70 50.44 46.90 53.57 47.84 52.18 50.09 51.35 50.62 57.54 59.63 60.88 61.42 61.88 61.04 62.97 64.49
55.42 54.92 54.61 54.42 53.87 53.42 53.28 53.40 53.34 53.40 53.52 54.01 54.40 54.12 54.25 54.30 55.01 55.21 55.17 57.02 57.88 55.64 55.93 56.03 55.56 60.39 62.19 62.31 63.13 58.19 58.14 58.83 58.88 59.98 56.11 54.75 50.00 52.43 49.07 49.60 52.20 53.71 55.33 51.13 51.66 54.34 56.11 58.96 60.73 61.05 61.70 62.02 62.95 64.63
54.72 54.39 54.00 53.61 53.36 53.01 52.86 53.19 53.29 53.46 53.48 53.89 54.17 54.13 54.12 54.48 54.32 55.25 54.19 57.02 56.45 56.32 52.22 55.06 59.27 59.80 64.20 62.69 61.70 62.79 60.80 61.91 61.26 58.50 55.33 54.36 52.84 55.76 51.10 53.22 53.11 56.06 56.36 51.42 53.18 56.14 57.00 57.95 59.48 59.90 60.12 61.13 61.34 64.01
54.35 53.92 53.57 53.63 53.31 52.77 52.77 52.80 52.90 53.15 53.44 53.91 53.95 53.74 53.84 54.23 54.25 54.68 55.90 56.27 57.35 54.54 53.42 55.95 60.91 61.84 63.26 60.21 58.82 61.58 59.99 59.89 58.07 55.70 54.29 53.22 56.57 55.46 54.21 54.05 51.08 55.28 54.73 51.82 52.06 57.87 57.40 56.31 59.14 60.12 59.31 58.96 60.20 61.84
53.33 53.39 53.08 53.10 52.58 52.20 52.36 52.48 52.61 52.98 53.33 53.52 53.89 53.78 53.64 54.09 53.45 53.52 50.52 56.87 56.48 56.83 53.57 52.14 59.05 60.07 59.55 60.10 60.12 59.32 59.81 59.33 58.04 56.21 55.51 58.45 58.92 55.19 51.34 51.05 53.53 55.31 57.97 58.67 56.31 58.38 59.37 58.87 59.06 60.28 59.64 59.33 61.26 62.19
52.79 52.88 52.85 52.32 51.66 51.59 51.38 51.67 52.26 52.80 53.26 53.36 53.60 53.57 53.48 53.41 53.09 52.02 50.69 53.36 54.34 57.41 54.14 51.11 54.47 60.24 59.99 59.92 60.18 59.89 60.37 58.91 57.83 56.53 56.63 56.19 57.32 55.11 52.87 49.92 55.66 55.98 57.08 58.06 59.59 59.74 57.55 58.24 57.08 59.56 59.55 59.37 61.09 62.90
52.10 52.07 52.64 52.34 51.78 51.46 51.08 51.12 51.99 52.56 53.07 53.17 53.49 53.53 53.15 52.74 52.04 50.93 55.70 52.96 56.06 56.24 56.49 52.12 54.02 55.89 59.47 55.77 55.28 59.68 57.20 57.98 57.70 56.41 57.74 55.21 57.22 56.23 51.03 54.89 56.52 57.34 57.17 58.02 59.55 59.62 58.84 60.50 59.54 59.95 60.03 60.93 60.65 61.62
51.17 51.57 52.24 52.16 51.52 51.28 50.66 51.00 51.89 52.41 53.18 53.22 53.12 53.44 54.73 52.57 50.57 53.64 56.02 55.13 57.78 55.07 51.79 52.78 51.48 50.84 58.77 56.40 56.69 57.15 58.13 53.84 58.09 54.55 54.81 55.33 53.27 53.55 54.60 56.85 56.49 57.32 57.15 57.88 59.43 59.21 59.32 58.92 59.30 59.72 59.48 60.15 61.12 61.59
50.86 50.95 51.09 51.55 51.58 51.33 51.38 51.40 51.95 52.59 52.95 52.84 53.38 52.24 48.15 52.61 55.64 55.95 53.85 52.94 53.19 54.56 54.97 52.23 56.07 51.42 56.65 55.82 55.18 54.90 56.17 53.07 51.18 54.09 56.77 52.34 51.53 56.60 57.82 59.43 59.18 58.92 59.60 59.35 57.35 57.03 57.93 57.95 59.15 59.41 59.15 59.93 60.82 62.48
50.79 51.28 51.35 51.42 51.48 51.45 51.26 51.54 52.03 52.64 52.00 55.01 52.48 52.70 54.87 54.82 55.38 53.98 51.59 49.71 51.60 49.65 52.36 53.22 55.68 53.37 58.79 52.47 53.04 56.00 52.48 53.34 48.15 51.69 51.71 50.38 49.72 55.04 58.29 59.11 59.87 59.90 60.50 60.03 60.04 60.66 60.36 60.05 59.43 59.29 59.41 60.06 60.53 62.07
51.07 51.66 51.62 51.48 51.51 51.25 51.34 51.63 52.07 52.75 54.79 51.32 53.29 53.44 56.26 52.14 51.80 49.39 48.92 51.32 49.90 47.95 53.70 52.56 53.21 56.84 54.93 59.42 55.93 54.10 51.97 52.14 47.24 54.81 50.95 48.21 52.89 58.58 59.12 58.96 59.92 60.44 59.94 59.60 60.50 60.63 60.67 60.34 60.08 59.94 60.06 60.40 61.75 63.46
51.50 51.00 50.97 51.02 50.99 50.99 51.27 51.47 51.91 52.34 52.11 56.54 53.57 51.56 51.90 49.49 42.49 43.37 42.45 46.07 47.92 52.36 54.63 54.66 52.37 54.71 56.81 57.56 55.46 53.13 49.58 48.52 55.67 50.36 48.80 50.98 57.64 59.61 60.17 59.92 59.86 60.90 60.30 59.56 59.90 60.92 61.23 60.93 61.13 60.91 60.64 62.04 63.52 63.86
50.07 50.24 50.51 50.73 50.62 50.74 50.88 51.15 51.44 52.69 53.29 51.10 49.63 40.68 46.69 45.24 46.98 47.68 48.81 48.73 53.25 55.23 53.88 54.58 53.34 54.32 54.82 53.49 54.57 48.76 54.03 53.81 47.74 46.31 46.93 53.36 58.35 59.86 61.29 61.26 60.05 59.97 60.53 59.13 59.43 60.37 61.02 61.32 60.72 61.58 61.89 62.62 62.42 63.02
49.44 49.85 50.10 50.45 50.69 50.79 51.06 51.28 51.13 54.41 52.56 49.73 50.25 43.73 46.53 50.72 51.52 51.87 53.91 53.91 55.43 55.80 54.55 53.63 53.62 53.82 51.84 49.13 52.15 51.74 47.42 45.31 47.24 47.41 52.90 56.63 60.18 60.55 60.42 60.56 60.36 60.49 60.42 59.36 59.90 60.14 61.04 61.50 60.95 61.33 62.43 63.08 63.43 63.92
49.14 48.88 51.44 51.08 50.70 51.76 52.05 51.79 53.06 54.69 53.90 51.24 50.35 48.31 51.30 49.26 50.19 50.96 50.82 51.45 53.97 54.30 54.18 53.85 49.91 48.55 48.77 49.85 48.14 46.83 46.18 45.15 48.29 52.87 54.89 59.06 61.85 62.10 62.59 62.21 61.47 61.47 61.23 60.37 60.38 60.66 61.40 61.65 61.47 61.63 62.87 63.25 63.62 64.01
48.25 51.29 51.78 51.69 52.16 52.27 52.34 52.99 53.85 51.49 51.25 48.95 48.40 52.17 51.04 49.70 49.38 51.03 52.27 52.31 57.17 55.02 50.80 49.49 45.61 46.84 51.16 47.31 47.06 49.97 47.74 51.39 53.60 55.15 59.01 61.23 61.56 61.84 62.57 62.48 62.56 62.02 61.48 61.37 61.93 63.52 62.03 62.56 62.59 62.00 61.71 63.63 64.24 65.00
50.07 52.55 51.99 52.21 52.75 52.52 54.48 54.05 51.76 50.72 47.02 49.96 48.33 50.15 50.74 52.31 51.37 52.17 53.34 55.04 55.07 55.09 53.34 50.05 53.79 48.19 46.73 45.36 46.89 51.55 53.10 56.34 58.18 58.07 58.71 60.61 62.29 62.90 62.32 61.72 62.74 62.39 61.62 61.76 61.82 61.76 61.92 61.49 61.17 60.95 62.45 63.44 63.59 64.34
50.87 51.74 50.92 51.86 52.96 53.65 51.53 52.45 53.56 47.55 48.85 50.43 50.65 51.82 51.11 51.34 53.21 54.11 53.90 55.18 56.76 57.85 56.13 54.13 48.04 48.03 48.04 51.85 51.89 54.58 53.76 56.59 56.05 57.70 59.09 61.36 62.48 62.16 62.25 61.62 62.31 61.77 61.76 61.65 61.50 60.43 60.78 61.85 60.95 61.26 61.98 62.48 61.44 62.18
49.78 49.99 50.43 51.13 52.74 52.05 49.63 51.56 55.48 49.72 47.59 48.57 49.41 48.19 49.34 49.83 51.10 51.40 52.47 53.34 52.86 53.49 49.76 48.80 49.21 52.53 52.60 55.64 56.89 56.22 58.09 58.38 57.73 55.72 56.34 57.83 60.80 61.99 61.17 61.34 60.57 62.23 61.06 61.41 61.04 56.03 60.50 60.36 60.70 62.07 62.03 61.57 60.74 60.12
49.38 51.66 50.76 52.44 54.42 52.96 51.40 51.35 50.16 51.44 50.31 48.56 50.97 49.48 47.37 51.68 49.83 50.56 50.55 53.47 50.33 48.64 48.17 52.18 52.64 54.22 59.40 59.24 55.31 58.94 58.75 58.57 57.08 57.65 57.36 57.14 59.40 60.78 60.58 60.98 61.56 60.58 59.44 59.10 59.04 58.01 57.24 59.30 60.18 61.15 60.70 60.08 59.76 59.25
51.94 51.76 53.89 52.97 47.93 50.05 50.81 52.76 50.06 51.23 49.85 47.74 46.62 47.69 45.95 46.22 49.23 50.03 53.17 49.12 49.23 51.20 52.55 53.40 54.51 55.05 56.09 57.44 58.73 60.09 59.80 59.55 59.76 57.88 51.31 53.70 58.36 59.03 59.63 60.24 59.65 59.01 59.08 58.92 58.77 58.54 58.95 60.05 60.04 60.05 59.15 59.39 56.46 59.09
50.16 52.31 50.94 51.42 46.86 45.73 45.00 52.74 47.09 47.35 42.83 45.26 47.03 44.70 46.42 47.62 50.87 55.00 49.17 51.65 51.29 53.51 53.88 54.73 56.79 57.87 56.71 58.31 60.50 58.81 60.17 59.47 58.11 57.75 59.59 59.50 60.68 61.41 60.59 60.00 60.34 59.05 58.40 59.06 59.80 59.03 58.62 53.43 56.47 58.84 58.78 58.46 57.76 56.26
50.03 49.61 46.19 46.36 46.40 41.16 48.13 46.82 48.34 46.70 47.81 46.74 47.49 46.84 49.23 51.74 54.79 51.81 49.25 52.52 53.23 56.40 54.32 55.14 55.08 55.28 55.86 57.20 55.74 56.44 57.35 58.39 58.17 57.67 59.27 59.49 57.39 58.73 61.17 61.81 61.55 60.68 61.13 61.71 60.32 60.40 59.96 58.94 54.45 58.34 59.01 58.00 57.49 55.35
41.81 40.64 43.43 37.01 45.70 43.16 42.84 44.52 46.69 47.56 46.73 48.69 47.85 48.47 50.38 55.09 49.57 49.12 50.48 53.73 55.70 56.23 58.19 58.74 58.92 58.00 56.95 57.94 55.67 56.92 59.77 58.45 57.11 57.03 59.52 60.65 57.48 57.97 58.42 60.33 61.53 61.91 61.65 60.09 58.95 58.36 57.21 56.63 57.05 56.82 56.87 57.66 56.67 55.21
37.42 43.38 41.35 44.17 44.22 43.27 45.66 43.56 45.40 46.80 48.23 47.56 48.86 52.86 52.21 49.24 46.24 45.69 50.23 52.45 55.27 56.84 57.30 56.44 57.05 58.34 57.36 56.90 57.01 57.45 58.20 57.81 57.37 56.85 57.26 57.93 57.56 58.32 56.71 54.95 55.24 55.41 57.95 57.02 56.51 55.57 55.06 55.27 55.25 56.29 56.80 55.86 49.21 56.23
37.52 41.42 46.37 49.93 47.22 45.67 48.25 49.39 49.73 47.28 46.39 46.02 50.00 48.27 45.57 41.54 43.37 49.90 54.94 57.17 54.51 58.57 59.53 59.53 60.49 57.86 58.91 59.51 58.28 59.16 59.25 58.63 58.46 57.93 58.51 59.19 59.71 60.72 60.75 57.81 56.45 57.48 58.42 57.73 57.05 55.60 55.63 56.42 55.94 56.19 56.43 56.95 56.55 56.56
43.28 45.04 43.20 48.09 47.37 49.33 46.48 47.35 47.41 47.01 47.19 49.18 48.29 44.80 45.03 45.41 48.08 55.21 57.38 59.93 59.41 57.26 57.98 57.41 61.76 59.97 60.66 62.24 60.57 61.20 62.06 62.24 60.94 60.62 60.78 60.13 59.83 62.09 61.17 61.84 60.50 48.26 57.20 57.54 57.15 57.78 57.35 56.94 55.86 55.03 54.60 54.56 55.15 56.14
45.19 48.90 48.22 46.31 48.54 48.73 49.08 48.14 47.08 48.48 51.70 50.46 47.16 47.49 49.75 54.30 58.04 58.65 59.74 59.27 61.07 60.50 57.25 56.67 58.69 60.08 58.89 59.99 60.14 60.42 59.74 58.74 58.22 57.06 55.97 56.53 57.76 59.85 61.48 59.78 57.96 58.96 59.88 58.42 43.01 51.73 55.87 55.00 54.78 54.69 54.89 54.70 55.16 55.28
46.35 50.98 47.86 46.92 46.13 46.60 50.42 52.58 50.72 52.18 53.34 53.52 54.43 55.65 57.03 58.08 58.84 60.26 57.18 57.02 56.83 54.30 57.04 55.95 56.62 56.03 55.35 55.82 56.64 57.04 58.97 58.84 58.85 57.15 55.33 55.33 57.01 59.13 60.14 59.95 60.03 59.73 59.17 56.87 56.00 56.30 45.64 54.22 52.73 57.16 56.57 56.60 55.88 55.64
51.26 51.02 47.96 48.97 47.84 51.37 52.30 53.27 54.19 54.32 54.33 54.85 56.41 53.91 53.96 55.04 56.68 58.51 58.88 59.16 58.60 58.48 57.93 57.22 57.47 56.44 56.74 55.97 55.51 55.03 55.12 57.61 57.99 58.08 57.98 57.97 57.90 57.95 58.23 58.28 58.46 58.32 57.49 56.78 56.64 56.45 56.31 55.53 56.00 56.12 55.54 55.54 55.67 54.66
49.51 48.04 45.51 44.54 45.48 49.47 52.08 52.13 51.54 51.99 53.94 53.79 52.41 53.64 53.66 52.87 51.75 55.35 58.63 57.73 56.11 55.86 52.27 56.36 56.42 55.76 57.60 58.27 58.83 58.67 50.39 58.06 58.41 58.54 58.67 57.91 58.14 58.36 58.20 57.79 58.19 58.59 58.21 57.86 56.87 55.69 57.29 56.84 56.44 55.08 55.32 54.93 55.02 55.26
47.66 47.02 46.66 44.87 46.48 47.94 51.06 51.32 51.11 50.97 51.77 51.80 50.84 50.63 53.16 51.69 49.78 56.14 59.65 59.90 57.26 56.83 56.65 57.23 57.84 58.01 58.24 57.87 57.78 57.22 55.68 59.91 49.01 40.00 41.88 41.39 40.70 47.11 57.04 57.61 58.05 57.63 57.43 57.39 56.68 56.65 56.16 55.51 55.57 55.33 55.10 55.00 54.83 54.89